Tracking 28081 objects as of 27-Sep-2023
HD Live streaming from Space Station
objects crossing your sky now

STARLINK-2568

Track STARLINK-2568 now!
10-day predictions
STARLINK-2568 is classified as:


NORAD ID: 48406
Int'l Code: 2021-038BF
Perigee: 553.2 km
Apogee: 555.6 km
Inclination: 53.1 °
Period: 95.6 minutes
Semi major axis: 6925 km
RCS: Unknown
Launch date: May 4, 2021
Source: United States (US)
Launch site: AIR FORCE EASTERN TEST RANGE (AFETR)
Your satellite tracking list
Your tracking list is empty




NASA's NSSDC Master Catalog

Two Line Element Set (TLE):
1 48406U 21038BF  23269.63956793  .00010052  00000-0  69294-3 0  9997
2 48406  53.0554  39.6574 0001698  70.2789 289.8383 15.06389990132408
Source of the keplerian elements: AFSPC